This is the latest recevied weather packets stored in our database for station/object KB3KBR-WX. If no packets are shown the sender has not sent any weather packets the latest 10 day(s).
| Time | Temp. | Humidity | Pressure | Rain* | Wind** | Luminosity | Snow |
|---|---|---|---|---|---|---|---|
| 1778117161 | 7.22° C | 69% | 1010.2 hPa | 0 mm | - | - | - |
| 1778116831 | 7.22° C | 68% | 1010.3 hPa | 0 mm | - | - | - |
| 1778116531 | 7.22° C | 67% | 1010.1 hPa | 0 mm | - | - | - |
| 1778116201 | 7.22° C | 69% | 1010.3 hPa | 0 mm | - | - | - |
| 1778115871 | 7.78° C | 71% | 1010.3 hPa | 0 mm | - | - | - |
| 1778115571 | 7.78° C | 68% | 1010.2 hPa | 0 mm | - | - | - |
| 1778115304 | 7.78° C | 69% | 1010 hPa | 0 mm | - | - | - |
| 1778115271 | 7.78° C | 69% | 1010 hPa | 0 mm | - | - | - |
| 1778114971 | 7.78° C | 70% | 1010.1 hPa | 0 mm | - | - | - |
| 1778114641 | 7.78° C | 66% | 1010.1 hPa | 0 mm | - | - | - |
| 1778114311 | 7.78° C | 66% | 1010.2 hPa | 0 mm | - | - | - |
| 1778114011 | 7.78° C | 65% | 1010.1 hPa | 0 mm | - | - | - |
| 1778113711 | 7.78° C | 63% | 1010.3 hPa | 0 mm | - | - | - |
| 1778113052 | 7.78° C | 63% | 1010.1 hPa | 0 mm | - | - | - |
| 1778112721 | 8.33° C | 64% | 1010.1 hPa | 0 mm | - | - | - |
| 1778112421 | 8.33° C | 60% | 1009.9 hPa | 0 mm | - | - | - |
| 1778112121 | 8.33° C | 61% | 1010.1 hPa | 0 mm | - | - | - |
| 1778111791 | 8.33° C | 60% | 1010.3 hPa | 0 mm | - | - | - |
| 1778111461 | 8.33° C | 61% | 1010.4 hPa | 0 mm | - | - | - |
| 1778111131 | 8.33° C | 60% | 1010.1 hPa | 0 mm | - | - | - |
| 1778110831 | 8.33° C | 60% | 1010.1 hPa | 0 mm | - | - | - |
| 1778110531 | 8.89° C | 61% | 1009.7 hPa | 0 mm | - | - | - |
| 1778110231 | 8.89° C | 60% | 1009.6 hPa | 0 mm | - | - | - |
| 1778109931 | 8.89° C | 60% | 1009.6 hPa | 0 mm | - | - | - |
| 1778109601 | 8.89° C | 59% | 1009.6 hPa | 0 mm | - | - | - |
* Rain latest hour (hover to see other rain measurements)
** Current wind speed in m/s (hover to see current wind gust speed)